Location: Florida Caverns State Park
(30.8073°N, 85.2161°W)
Time: 19:12:02
(UTC-04:00)

ISS - Visible Passes

Search period start: 17 October 2019 00:00
Search period end: 27 October 2019 00:00
Orbit: 411 x 421 km, 51.6° (Epoch: 17 October)

Date Brightness Start Highest point End Pass type
(mag) Time Alt. Az. Time Alt. Az. Time Alt. Az.
22 Oct -2.1 06:57:08 10° SSW 07:00:13 35° SE 07:03:20 10° ENE visible
23 Oct -1.0 06:09:25 10° S 06:11:46 18° SE 06:14:08 10° E visible
24 Oct -3.7 06:56:54 14° WSW 06:59:42 56° NW 07:03:01 10° NE visible
25 Oct -3.4 06:11:23 64° E 06:11:23 64° E 06:14:29 10° NE visible
26 Oct -0.2 05:25:37 10° ENE 05:25:37 10° ENE 05:25:40 10° ENE visible
26 Oct -2.1 06:58:33 17° WNW 06:59:24 19° NW 07:01:52 10° N visible
